Regional Weather Roundup
Issued by NWS

Home | Current Version | Previous Version | Graphics & Text | Print | Product List | Glossary On
Versions: 1 2 3 4 5 6 7 8 9 10 11 12 13 14 15 16 17 18 19 20 21 22 23 24 25 26 27 28 29 30 31 32 33 34 35 36 37 38 39 40 41 42 43 44 45 46 47 48 49 50
877
ASUS43 KLSX 251610
RWRMO

WEATHER SUMMARY FOR MISSOURI
NATIONAL WEATHER SERVICE SPRINGFIELD MO
1100 AM CDT SAT MAR 25 2017

NOTE: "FAIR" INDICATES FEW OR NO CLOUDS BELOW 12,000 FEET WITH NO
       SIGNIFICANT WEATHER AND/OR OBSTRUCTIONS TO VISIBILITY.
       CURRENT SKY AND/OR WEATHER CONDITIONS ARE NOT AVAILABLE FOR
       CHILLICOTHE AND FARMINGTON.

MOZ001>031-035>038-043-044-053-054-251700-
...NORTHERN AND WESTERN MISSOURI...

CITY           SKY/WX    TMP DP  RH WIND       PRES   REMARKS
KANSAS CTY INT LGT RAIN  52  51  97 N10       29.84R FOG
KANSAS C DTWN  LGT RAIN  57  54  89 E6        29.83R
LEE`S SUMMIT   LGT RAIN  54  53  97 N5        29.83S FOG
ST JOSEPH      CLOUDY    48  47  96 N16       29.89R
CHILLICOTHE      N/A     52  50  93 N9G20     29.87R
KIRKSVILLE     CLOUDY    54  53  97 NE8       29.86R FOG

$$
MOZ066>068-077>081-088>096-101>105-251700-
...SOUTHWEST MISSOURI...

CITY           SKY/WX    TMP DP  RH WIND       PRES   REMARKS
SPRINGFIELD    LGT RAIN  56  52  86 S5        29.80R
JOPLIN         CLOUDY    50  48  93 NW12      29.84S
BRANSON        PTSUNNY   57  54  88 SW6       29.82R

$$
MOZ032>034-039>042-045>050-055>058-069>072-251700-
...CENTRAL MISSOURI...

CITY           SKY/WX    TMP DP  RH WIND       PRES   REMARKS
COLUMBIA       CLOUDY    57  54  89 SE9       29.85R
JEFFERSON CITY CLOUDY    60  53  77 SE10      29.84R
ROLLA          HVY RAIN  56  55  97 SE9       29.84R FOG
SEDALIA        CLOUDY    58  52  80 S8        29.84R
WHITEMAN AFB   CLOUDY    57  57 100 CALM      29.81R
WARRENSBURG    CLOUDY    55  52  88 N6        29.80S
OSAGE BEACH    CLOUDY   N/A N/A N/A S3        29.84R

$$
MOZ051-052-059>065-251700-
...EAST CENTRAL MISSOURI...

CITY           SKY/WX    TMP DP  RH WIND       PRES   REMARKS
ST LOUIS INTL  CLOUDY    61  54  77 S17       29.90R
SPIRIT OF STL  CLOUDY    60  55  83 SE8       29.88R
ST CHARLES     CLOUDY    59  55  87 S13       29.90R

$$
MOZ072>076-082>087-097>100-106>115-251700-
...SOUTH CENTRAL AND SOUTHEAST MISSOURI...

CITY           SKY/WX    TMP DP  RH WIND       PRES   REMARKS
CAPE GIRARDEAU CLOUDY    61  56  83 S21       29.92S
FARMINGTON     CLOUDY    58  55  90 S13       29.89S
POPLAR BLUFF   CLOUDY    60  58  92 S15       29.89F
WEST PLAINS    CLOUDY    58  56  93 S12G21    29.83F

$$




USA.gov is the U.S. government's official web portal to all federal, state and local government web resources and services.